This is the latest recevied weather packets stored in our database for station/object K8DJB-1. If no packets are shown the sender has not sent any weather packets the latest 1 day(s).
| Time | Temp. | Humidity | Pressure | Rain* | Wind** | Luminosity | Snow |
|---|---|---|---|---|---|---|---|
| 1778042087 | 7.78° C | 62% | 1009.2 hPa | 0 mm | - | - | - |
| 1778041487 | 7.78° C | 62% | 1009 hPa | 0 mm | - | - | - |
| 1778041187 | 7.22° C | 62% | 1009 hPa | 0 mm | - | - | - |
| 1778040887 | 7.22° C | 64% | 1008.8 hPa | 0 mm | - | - | - |
| 1778040587 | 6.67° C | 67% | 1008.9 hPa | 0 mm | - | - | - |
| 1778040287 | 6.11° C | 70% | 1009.1 hPa | 0 mm | - | - | - |
| 1778039987 | 6.11° C | 72% | 1008.9 hPa | 0 mm | - | - | - |
| 1778039687 | 6.11° C | 73% | 1008.9 hPa | 0 mm | - | - | - |
| 1778039087 | 6.11° C | 74% | 1009 hPa | 0 mm | - | - | - |
| 1778038787 | 6.11° C | 74% | 1008.8 hPa | 0 mm | - | - | - |
| 1778038487 | 6.11° C | 74% | 1008.7 hPa | 0 mm | - | - | - |
| 1778038187 | 6.67° C | 74% | 1008.7 hPa | 0 mm | - | - | - |
| 1778037887 | 6.11° C | 73% | 1008.6 hPa | 0 mm | - | - | - |
| 1778037587 | 6.11° C | 74% | 1008.6 hPa | 0 mm | - | - | - |
| 1778037287 | 6.67° C | 74% | 1009 hPa | 0 mm | - | - | - |
| 1778036698 | 6.67° C | 73% | 1009 hPa | 0 mm | - | - | - |
| 1778036398 | 6.67° C | 73% | 1009 hPa | 0 mm | - | - | - |
| 1778036098 | 6.67° C | 73% | 1008.9 hPa | 0 mm | - | - | - |
| 1778035798 | 6.67° C | 73% | 1008.9 hPa | 0 mm | - | - | - |
| 1778035198 | 6.67° C | 72% | 1008.6 hPa | 0 mm | - | - | - |
| 1778034898 | 6.67° C | 72% | 1008.5 hPa | 0 mm | - | - | - |
| 1778034598 | 6.67° C | 73% | 1008.7 hPa | 0 mm | - | - | - |
| 1778034298 | 6.67° C | 74% | 1008.6 hPa | 0 mm | - | - | - |
| 1778033998 | 6.67° C | 75% | 1008.6 hPa | 0 mm | - | - | - |
| 1778033698 | 6.67° C | 73% | 1008.4 hPa | 0 mm | - | - | - |
* Rain latest hour (hover to see other rain measurements)
** Current wind speed in m/s (hover to see current wind gust speed)